Weather History for Hermiston, OR

Change the Weather History Date:

Tuesday, May 6, 2014

  Actual Average Record
Temperature  
Mean Temperature 58 °F -  
Max Temperature 70 °F 71 °F 95 °F (1966)
Min Temperature 45 °F 45 °F 27 °F (2000)
Degree Days  
Heating Degree Days 8    
Growing Degree Days 8 (Base 50)    
Moisture  
Dew Point 38 °F    
Average Humidity 47    
Maximum Humidity 80    
Minimum Humidity 30    
Precipitation  
Precipitation 0.00 in - - ()
Sea Level Pressure  
Sea Level Pressure 29.90 in    
Wind  
Wind Speed 10 mph (West)    
Max Wind Speed 20 mph    
Max Gust Speed 26 mph    
Visibility 10 miles    
Events Rain    
Averages and records for this station are not official NWS values.
T = Trace of Precipitation, MM = Missing Value Source: NWS Daily Summary

Daily Weather History Graph

Daily Weather History Graph

Search for Another Location

Airport:

Trip Planner

Search our weather history database for the weather conditions in past years. The results will help you decide how hot, cold, wet, or windy it might be!

Date:

Astronomy

May. 06, 2014 Rise Set
Actual Time 5:36 AM PDT 8:11 PM PDT
Civil Twilight 5:03 AM PDT 8:44 PM PDT
Nautical Twilight 4:21 AM PDT 9:27 PM PDT
Astronomical Twilight 3:32 AM PDT 10:16 PM PDT
Moon 12:01 PM PDT (5/6) 1:29 AM PDT (5/6)
Length of Visible Light 15h 41m
Length of Day
14h 34m
Waxing Crescent, 47% of the Moon is Illuminated
May 6
Waxing Crescent
May 6
First Quarter
May 14
Full
May 21
Last Quarter
May 28
New

Hourly Weather History & Observations

Time (PDT) Temp. Windchill Dew Point Humidity Pressure Visibility Wind Dir Wind Speed Gust Speed Precip Events Conditions
12:53 AM 48.0 °F - 39.9 °F 74% 29.94 in 10.0 mi SW 11.5 mph - N/A   Clear
4:53 AM 46.0 °F 43.9 °F 39.0 °F 76% 29.95 in 10.0 mi West 4.6 mph - N/A   Clear
5:53 AM 45.0 °F 42.6 °F 39.0 °F 80% 29.95 in 10.0 mi SW 4.6 mph - N/A   Partly Cloudy
7:53 AM 52.0 °F - 42.1 °F 69% 29.97 in 10.0 mi West 8.1 mph - N/A   Mostly Cloudy
8:53 AM - - - N/A% 29.97 in - North - - N/A   Clear
9:53 AM 60.1 °F - 39.9 °F 47% 29.95 in - WSW 8.1 mph - N/A   Clear
10:13 AM 61.0 °F - 39.9 °F 46% 29.95 in 2.5 mi West 10.4 mph - N/A   Haze
10:22 AM 60.1 °F - 39.9 °F 47% 29.94 in 10.0 mi West 8.1 mph - N/A   Clear
10:53 AM 63.0 °F - 39.0 °F 41% 29.93 in 10.0 mi WNW 6.9 mph - N/A   Clear
11:53 AM 62.1 °F - 37.0 °F 39% 29.91 in 10.0 mi WSW 8.1 mph - N/A   Mostly Cloudy
12:53 PM 66.9 °F - 37.0 °F 33% 29.89 in 10.0 mi WSW 10.4 mph - N/A   Scattered Clouds
1:53 PM 68.0 °F - 36.0 °F 31% 29.87 in 10.0 mi WNW 9.2 mph - N/A   Scattered Clouds
2:53 PM 66.0 °F - 34.0 °F 30% 29.86 in 10.0 mi West 5.8 mph - N/A   Scattered Clouds
3:53 PM 66.9 °F - 34.0 °F 30% 29.84 in 10.0 mi NW 9.2 mph - N/A   Partly Cloudy
4:53 PM 70.0 °F - 37.9 °F 31% 29.83 in 10.0 mi West 19.6 mph 26.5 mph N/A   Mostly Cloudy
5:53 PM 66.9 °F - 37.9 °F 34% 29.84 in 10.0 mi West 16.1 mph - N/A   Clear
6:53 PM 64.0 °F - 37.0 °F 37% 29.84 in 10.0 mi West 13.8 mph 23.0 mph N/A   Scattered Clouds
7:53 PM 62.1 °F - 39.0 °F 43% 29.85 in 10.0 mi WSW 10.4 mph - N/A   Overcast
8:53 PM 60.1 °F - 39.0 °F 46% 29.85 in 10.0 mi WSW 12.7 mph - 0.00 in   Overcast
9:53 PM 59.0 °F - 37.9 °F 46% 29.87 in 10.0 mi West 12.7 mph - N/A   Mostly Cloudy
10:53 PM 55.9 °F - 39.0 °F 53% 29.88 in 10.0 mi WSW 16.1 mph - 0.00 in Rain Light Rain
11:53 PM 55.0 °F - 39.0 °F 55% 29.91 in 10.0 mi WSW 9.2 mph - 0.00 in   Overcast